Location: Byhalia Creek
(34.8270°N, 89.8040°W)
Time: 16:48:10
(UTC+00:00)

Meteor 1-18 Rocket - Pass Details

Date: 22 April 2026
Orbit: 835 x 908 km, 81.2° (Epoch: 9 May)

Event Time Altitude Azimuth Distance (km) Brightness Sun altitude
Exits shadow 09:24:31 25° 177° (S) 1,651 5.4 -22.1°
Maximum altitude 09:27:53 75° 96° (E) 871 4.3 -21.5°
Drops below altitude 10° 09:33:25 10° 12° (NNE) 2,453 7.2 -20.6°
Sets 09:35:49 0° 11° (N) 3,389 8.0 -20.1°
